,,Stat5,,Stat1,,Stat2,,Stat3,,Stat4,,Wind1,,Wind1,
time,status,PA1M_AVG,status,PR1M_SUM,status,RH1M_AVG,status,SR1M_AVG,status,TA1M_AVG,status,W1dAve1m,status,W1sAve1m,
2002-10-30, 00:00:00,VALID,917.893,VALID,0,VALID,98.9753,VALID,-0.0849042,VALID,19.7969,VALID,102,VALID,0.691817,
2002-10-30, 00:01:00,VALID,917.882,VALID,0,VALID,99.0135,VALID,-0.0849042,VALID,19.7969,VALID,126,VALID,0.636418,
2002-10-30, 00:02:00,VALID,917.858,VALID,0,VALID,99.0313,VALID,-0.0849042,VALID,19.8098,VALID,136,VALID,0.387952,
2002-10-30, 00:03:00,VALID,917.862,VALID,0,VALID,99.044,VALID,-0.0679233,VALID,19.8068,VALID,123,VALID,0.613076,
2002-10-30, 00:04:00,VALID,917.855,VALID,0,VALID,99.0313,VALID,-0.0339617,VALID,19.7996,VALID,118,VALID,0.663872,
2002-10-30, 00:05:00,VALID,917.854,VALID,0,VALID,99.0567,VALID,0,VALID,19.7956,VALID,131,VALID,0.72973,
2002-10-30, 00:06:01,VALID,917.853,VALID,0,VALID,99.0656,VALID,0.0339617,VALID,19.7892,VALID,124,VALID,0.672877,
2002-10-30, 00:07:00,VALID,917.834,VALID,0,VALID,99.0834,VALID,0,VALID,19.7859,VALID,123,VALID,0.569311,
2002-10-30, 00:08:00,VALID,917.829,VALID,0,VALID,99.0847,VALID,0.0169808,VALID,19.779,VALID,121,VALID,0.496505,
2002-10-30, 00:09:00,VALID,917.833,VALID,0,VALID,99.1127,VALID,0.0169808,VALID,19.7758,VALID,111,VALID,0.566501,
2002-10-30, 00:10:00,VALID,917.816,VALID,0,VALID,99.105,VALID,0.0339617,VALID,19.7663,VALID,115,VALID,0.577524,
2002-10-30, 00:11:01,VALID,917.802,VALID,0,VALID,99.1292,VALID,0.0339617,VALID,19.7564,VALID,127,VALID,0.776172,
2002-10-30, 00:12:00,VALID,917.787,VALID,0,VALID,99.1546,VALID,0.0509425,VALID,19.7658,VALID,130,VALID,0.900641,
2002-10-30, 00:13:00,VALID,917.766,VALID,0,VALID,99.1648,VALID,0.0509425,VALID,19.7658,VALID,148,VALID,0.704459,
2002-10-30, 00:14:00,VALID,917.753,VALID,0,VALID,99.1674,VALID,0.0679233,VALID,19.7656,VALID,141,VALID,0.732686,
2002-10-30, 00:15:00,VALID,917.756,VALID,0,VALID,99.1852,VALID,0,VALID,19.7792,VALID,149,VALID,0.959736,
2002-10-30, 00:16:00,VALID,917.752,VALID,0,VALID,99.2068,VALID,0,VALID,19.776,VALID,140,VALID,0.732227,
2002-10-30, 00:17:01,VALID,917.744,VALID,0,VALID,99.2017,VALID,0,VALID,19.7795,VALID,130,VALID,0.699124,
2002-10-30, 00:18:00,VALID,917.75,VALID,0,VALID,99.2055,VALID,0.0169808,VALID,19.773,VALID,117,VALID,0.392671,
2002-10-30, 00:19:01,VALID,917.749,VALID,0,VALID,99.2182,VALID,-0.0169808,VALID,19.7705,VALID,118,VALID,0.78864,
2002-10-30, 00:20:01,VALID,917.736,VALID,0,VALID,99.2169,VALID,-0.0679233,VALID,19.7514,VALID,115,VALID,0.919588,
2002-10-30, 00:21:00,VALID,917.743,VALID,0,VALID,99.208,VALID,-0.0339617,VALID,19.7415,VALID,99,VALID,0.626143,
2002-10-30, 00:22:00,VALID,917.701,VALID,0,VALID,99.2437,VALID,-0.0509425,VALID,19.7449,VALID,101,VALID,0.544975,
2002-10-30, 00:23:00,VALID,917.698,VALID,0,VALID,99.2589,VALID,-0.0679233,VALID,19.7315,VALID,112,VALID,0.650781,
2002-10-30, 00:24:00,VALID,917.681,VALID,0,VALID,99.2742,VALID,-0.0849042,VALID,19.7581,VALID,123,VALID,0.245982,
2002-10-30, 00:25:00,VALID,917.67,VALID,0,VALID,99.2856,VALID,-0.0679233,VALID,19.7676,VALID,128,VALID,0.711607,
2002-10-30, 00:26:01,VALID,917.666,VALID,0,VALID,99.2983,VALID,-0.0679233,VALID,19.7708,VALID,130,VALID,0.827902,
2002-10-30, 00:27:00,VALID,917.644,VALID,0,VALID,99.3047,VALID,-0.0679233,VALID,19.7802,VALID,139,VALID,0.667019,
2002-10-30, 00:28:00,VALID,917.636,VALID,0,VALID,99.3238,VALID,-0.0169808,VALID,19.7837,VALID,138,VALID,0.728002,
2002-10-30, 00:29:00,VALID,917.624,VALID,0,VALID,99.3263,VALID,-0.0339617,VALID,19.7937,VALID,124,VALID,0.774704,
2002-10-30, 00:30:00,VALID,917.608,VALID,0,VALID,99.3263,VALID,-0.0339617,VALID,19.7934,VALID,110,VALID,0.957442,
2002-10-30, 00:31:00,VALID,917.597,VALID,0,VALID,99.3161,VALID,-0.0849042,VALID,19.7735,VALID,104,VALID,0.821957,
2002-10-30, 00:32:00,VALID,917.583,VALID,0,VALID,99.3263,VALID,-0.101885,VALID,19.7807,VALID,105,VALID,0.838086,
2002-10-30, 00:33:01,VALID,917.571,VALID,0,VALID,99.3263,VALID,-0.0849042,VALID,19.7807,VALID,98,VALID,0.712546,
2002-10-30, 00:34:01,VALID,917.557,VALID,0,VALID,99.3301,VALID,0,VALID,19.78,VALID,94,VALID,0.839453,
2002-10-30, 00:35:00,VALID,917.515,VALID,0,VALID,99.3441,VALID,0.0509425,VALID,19.7753,VALID,89,VALID,0.649639,
2002-10-30, 00:36:00,VALID,917.507,VALID,0,VALID,99.339,VALID,0.0509425,VALID,19.7695,VALID,96,VALID,0.562078,
2002-10-30, 00:37:01,VALID,917.488,VALID,0,VALID,99.3365,VALID,0.0339617,VALID,19.7626,VALID,99,VALID,0.497196,
2002-10-30, 00:38:00,VALID,917.464,VALID,0,VALID,99.3199,VALID,0.0169808,VALID,19.744,VALID,97,VALID,0.549137,
2002-10-30, 00:39:00,VALID,917.451,VALID,0,VALID,99.3263,VALID,0.0509425,VALID,19.7174,VALID,97,VALID,0.471955,
2002-10-30, 00:40:00,VALID,917.442,VALID,0,VALID,99.3416,VALID,0.0679233,VALID,19.7136,VALID,102,VALID,0.543826,
2002-10-30, 00:41:00,VALID,917.436,VALID,0,VALID,99.3556,VALID,0.0679233,VALID,19.7405,VALID,118,VALID,0.42528,
2002-10-30, 00:42:01,VALID,917.418,VALID,0,VALID,99.3695,VALID,0.0679233,VALID,19.7467,VALID,121,VALID,0.317555,
2002-10-30, 00:43:01,VALID,917.395,VALID,0,VALID,99.3695,VALID,0.0509425,VALID,19.7695,VALID,121,VALID,0.320898,
2002-10-30, 00:44:00,VALID,917.364,VALID,0,VALID,99.3695,VALID,0.0509425,VALID,19.7564,VALID,122,VALID,0.649219,
2002-10-30, 00:45:00,VALID,917.346,VALID,0,VALID,99.3683,VALID,0.0849042,VALID,19.7529,VALID,122,VALID,0.533398,
2002-10-30, 00:46:00,VALID,917.319,VALID,0,VALID,99.3657,VALID,0.0509425,VALID,19.7497,VALID,122,VALID,0.168069,
2002-10-30, 00:47:01,VALID,917.301,VALID,0,VALID,99.3632,VALID,0.0849042,VALID,19.7566,VALID,122,VALID,0.0455412,
2002-10-30, 00:48:00,VALID,917.296,VALID,0,VALID,99.3517,VALID,0.0339617,VALID,19.7372,VALID,122,VALID,0.105997,
2002-10-30, 00:49:00,VALID,917.286,VALID,0,VALID,99.2945,VALID,-0.0169808,VALID,19.6508,VALID,104,VALID,0.36879,
2002-10-30, 00:50:00,VALID,917.279,VALID,0,VALID,99.2843,VALID,-0.0509425,VALID,19.5896,VALID,96,VALID,0.544588,
2002-10-30, 00:51:01,VALID,917.273,VALID,0,VALID,99.3288,VALID,0,VALID,19.622,VALID,88,VALID,0.297081,
2002-10-30, 00:52:00,VALID,917.264,VALID,0,VALID,99.3339,VALID,-0.0849042,VALID,19.6289,VALID,87,VALID,0.0963542,
2002-10-30, 00:53:00,VALID,917.242,VALID,0,VALID,99.3365,VALID,-0.0169808,VALID,19.6125,VALID,87,VALID,0,
2002-10-30, 00:54:00,VALID,917.227,VALID,0,VALID,99.3085,VALID,-0.0339617,VALID,19.5805,VALID,87,VALID,0,
2002-10-30, 00:55:00,VALID,917.211,VALID,0,VALID,99.264,VALID,-0.0509425,VALID,19.5094,VALID,87,VALID,0.00117188,
2002-10-30, 00:56:00,VALID,917.215,VALID,0,VALID,99.2411,VALID,-0.0679233,VALID,19.4671,VALID,87,VALID,0,
2002-10-30, 00:57:00,VALID,917.198,VALID,0,VALID,99.2322,VALID,-0.0339617,VALID,19.4577,VALID,87,VALID,0,
2002-10-30, 00:58:00,VALID,917.194,VALID,0,VALID,99.2589,VALID,-0.0169808,VALID,19.4478,VALID,87,VALID,0,
2002-10-30, 00:59:00,VALID,917.17,VALID,0,VALID,99.2691,VALID,0,VALID,19.4408,VALID,87,VALID,0,
2002-10-30, 01:00:00,VALID,917.186,VALID,0,VALID,99.2653,VALID,0,VALID,19.4217,VALID,89,VALID,0.118454,
2002-10-30, 01:01:00,VALID,917.179,VALID,0,VALID,99.2665,VALID,-0.0509425,VALID,19.4122,VALID,139,VALID,0.414485,
2002-10-30, 01:02:00,VALID,917.171,VALID,0,VALID,99.2767,VALID,-0.0169808,VALID,19.4055,VALID,144,VALID,0.411204,
2002-10-30, 01:03:00,VALID,917.171,VALID,0,VALID,99.3123,VALID,-0.0679233,VALID,19.4351,VALID,121,VALID,0.849301,
2002-10-30, 01:04:01,VALID,917.179,VALID,0,VALID,99.3377,VALID,0,VALID,19.4793,VALID,129,VALID,0.594572,
2002-10-30, 01:05:00,VALID,917.169,VALID,0,VALID,99.3594,VALID,-0.0169808,VALID,19.5029,VALID,131,VALID,0.636719,
2002-10-30, 01:06:00,VALID,917.177,VALID,0,VALID,99.3734,VALID,-0.0679233,VALID,19.5258,VALID,121,VALID,0.633984,
2002-10-30, 01:07:00,VALID,917.167,VALID,0,VALID,99.3644,VALID,-0.0679233,VALID,19.5422,VALID,129,VALID,0.666884,
2002-10-30, 01:08:01,VALID,917.165,VALID,0,VALID,99.3505,VALID,-0.0509425,VALID,19.5188,VALID,111,VALID,0.518229,
2002-10-30, 01:09:01,VALID,917.161,VALID,0,VALID,99.3556,VALID,-0.0339617,VALID,19.5193,VALID,116,VALID,0.566016,
2002-10-30, 01:10:00,VALID,917.142,VALID,0,VALID,99.367,VALID,-0.0339617,VALID,19.5221,VALID,113,VALID,0.667067,
2002-10-30, 01:11:00,VALID,917.12,VALID,0,VALID,99.3797,VALID,-0.0339617,VALID,19.5449,VALID,107,VALID,0.844752,
2002-10-30, 01:12:01,VALID,917.105,VALID,0,VALID,99.3886,VALID,-0.0849042,VALID,19.5447,VALID,112,VALID,0.363176,
2002-10-30, 01:13:00,VALID,917.088,VALID,0,VALID,99.3632,VALID,-0.0679233,VALID,19.5352,VALID,102,VALID,0.513672,
2002-10-30, 01:14:01,VALID,917.085,VALID,0,VALID,99.3517,VALID,-0.0509425,VALID,19.5094,VALID,94,VALID,0.763477,
2002-10-30, 01:15:00,VALID,917.06,VALID,0,VALID,99.3708,VALID,-0.0679233,VALID,19.5226,VALID,100,VALID,0.846217,
2002-10-30, 01:16:01,VALID,917.049,VALID,0,VALID,99.3835,VALID,-0.0679233,VALID,19.5255,VALID,92,VALID,0.626184,
2002-10-30, 01:17:00,VALID,917.021,VALID,0,VALID,99.3734,VALID,-0.0339617,VALID,19.5161,VALID,111,VALID,0.492969,
2002-10-30, 01:18:00,VALID,917.01,VALID,0,VALID,99.3721,VALID,-0.0679233,VALID,19.4967,VALID,109,VALID,0.486579,
2002-10-30, 01:19:01,VALID,916.99,VALID,0,VALID,99.381,VALID,0,VALID,19.4957,VALID,109,VALID,0.45918,
2002-10-30, 01:20:00,VALID,916.977,VALID,0,VALID,99.4077,VALID,0.0339617,VALID,19.5015,VALID,107,VALID,0.624399,
2002-10-30, 01:21:00,VALID,916.974,VALID,0,VALID,99.4433,VALID,0.0509425,VALID,19.5467,VALID,106,VALID,0.804497,
2002-10-30, 01:22:00,VALID,916.966,VALID,0,VALID,99.4662,VALID,0.0509425,VALID,19.6051,VALID,106,VALID,0.77935,
2002-10-30, 01:23:00,VALID,916.952,VALID,0,VALID,99.4369,VALID,0.0169808,VALID,19.5852,VALID,96,VALID,0.660857,
2002-10-30, 01:24:00,VALID,916.937,VALID,0,VALID,99.4179,VALID,0,VALID,19.5375,VALID,86,VALID,0.822461,
2002-10-30, 01:25:01,VALID,916.922,VALID,0,VALID,99.3988,VALID,0.0169808,VALID,19.5012,VALID,86,VALID,0.813072,
2002-10-30, 01:26:00,VALID,916.91,VALID,0,VALID,99.3937,VALID,0.0509425,VALID,19.4823,VALID,85,VALID,0.832217,
2002-10-30, 01:27:01,VALID,916.915,VALID,0,VALID,99.395,VALID,0.0509425,VALID,19.4664,VALID,85,VALID,1.01014,
2002-10-30, 01:28:01,VALID,916.905,VALID,0,VALID,99.3861,VALID,0,VALID,19.4438,VALID,84,VALID,1.10938,
2002-10-30, 01:29:01,VALID,916.912,VALID,0,VALID,99.3708,VALID,0.0509425,VALID,19.415,VALID,91,VALID,1.10423,
2002-10-30, 01:30:00,VALID,916.903,VALID,0,VALID,99.3772,VALID,0.0679233,VALID,19.372,VALID,89,VALID,1.13978,
2002-10-30, 01:31:01,VALID,916.89,VALID,0,VALID,99.414,VALID,0.0169808,VALID,19.4013,VALID,89,VALID,0.874805,
2002-10-30, 01:32:00,VALID,916.882,VALID,0,VALID,99.4382,VALID,0.0169808,VALID,19.4339,VALID,96,VALID,0.812723,
2002-10-30, 01:33:01,VALID,916.881,VALID,0,VALID,99.4433,VALID,0.0509425,VALID,19.4503,VALID,98,VALID,0.932366,
2002-10-30, 01:34:01,VALID,916.877,VALID,0,VALID,99.4573,VALID,-0.0339617,VALID,19.451,VALID,98,VALID,0.858705,
2002-10-30, 01:35:01,VALID,916.876,VALID,0,VALID,99.4624,VALID,-0.0849042,VALID,19.4609,VALID,114,VALID,0.619299,
2002-10-30, 01:36:00,VALID,916.867,VALID,0,VALID,99.4687,VALID,-0.0849042,VALID,19.4776,VALID,100,VALID,1.12315,
2002-10-30, 01:37:01,VALID,916.853,VALID,0,VALID,99.4496,VALID,-0.101885,VALID,19.4674,VALID,84,VALID,0.737753,
2002-10-30, 01:38:01,VALID,916.846,VALID,0,VALID,99.4357,VALID,-0.0849042,VALID,19.4095,VALID,81,VALID,0.719984,
2002-10-30, 01:39:01,VALID,916.824,VALID,0,VALID,99.4179,VALID,-0.101885,VALID,19.3906,VALID,121,VALID,0.62315,
2002-10-30, 01:40:01,VALID,916.811,VALID,0,VALID,99.4318,VALID,-0.0849042,VALID,19.3673,VALID,118,VALID,0.884375,
2002-10-30, 01:41:01,VALID,916.784,VALID,0,VALID,99.4306,VALID,-0.101885,VALID,19.3578,VALID,113,VALID,0.740119,
2002-10-30, 01:42:01,VALID,916.755,VALID,0,VALID,99.4255,VALID,-0.0679233,VALID,19.3419,VALID,115,VALID,0.691016,
2002-10-30, 01:43:01,VALID,916.749,VALID,0,VALID,99.4242,VALID,-0.101885,VALID,19.3225,VALID,123,VALID,0.560697,
2002-10-30, 01:44:01,VALID,916.71,VALID,0,VALID,99.4458,VALID,-0.0849042,VALID,19.3225,VALID,136,VALID,0.695101,
2002-10-30, 01:45:01,VALID,916.695,VALID,0,VALID,99.4751,VALID,-0.0849042,VALID,19.3392,VALID,149,VALID,1.09095,
2002-10-30, 01:46:01,VALID,916.656,VALID,0,VALID,99.4891,VALID,-0.101885,VALID,19.3906,VALID,140,VALID,0.640419,
2002-10-30, 01:47:01,VALID,916.653,VALID,0,VALID,99.484,VALID,-0.0849042,VALID,19.3839,VALID,122,VALID,0.483373,
2002-10-30, 01:48:01,VALID,916.622,VALID,0,VALID,99.498,VALID,-0.101885,VALID,19.4266,VALID,133,VALID,0.804688,
2002-10-30, 01:49:01,VALID,916.621,VALID,0,VALID,99.4942,VALID,-0.0339617,VALID,19.4217,VALID,131,VALID,1.01422,
2002-10-30, 01:50:01,VALID,916.612,VALID,0,VALID,99.5056,VALID,0,VALID,19.4341,VALID,131,VALID,0.862822,
2002-10-30, 01:51:01,VALID,916.602,VALID,0,VALID,99.4954,VALID,0,VALID,19.4277,VALID,124,VALID,0.574609,
2002-10-30, 01:52:01,VALID,916.589,VALID,0,VALID,99.4827,VALID,0,VALID,19.4316,VALID,118,VALID,0.500422,
2002-10-30, 01:53:01,VALID,916.594,VALID,0,VALID,99.4916,VALID,0.0169808,VALID,19.3991,VALID,113,VALID,0.864844,
2002-10-30, 01:54:01,VALID,916.576,VALID,0,VALID,99.4929,VALID,0,VALID,19.4053,VALID,116,VALID,0.841947,
2002-10-30, 01:55:01,VALID,916.564,VALID,0,VALID,99.4916,VALID,0,VALID,19.3857,VALID,120,VALID,0.681974,
2002-10-30, 01:56:01,VALID,916.553,VALID,0,VALID,99.4814,VALID,0.0169808,VALID,19.3794,VALID,122,VALID,0.51098,
2002-10-30, 01:57:01,VALID,916.538,VALID,0,VALID,99.4865,VALID,-0.0169808,VALID,19.3628,VALID,133,VALID,0.873397,
2002-10-30, 01:58:00,VALID,916.524,VALID,0,VALID,99.5005,VALID,0,VALID,19.369,VALID,137,VALID,0.905488,
2002-10-30, 01:59:00,VALID,916.519,VALID,0,VALID,99.5018,VALID,0,VALID,19.3924,VALID,134,VALID,1.06373,
2002-10-30, 02:00:00,VALID,916.506,VALID,0,VALID,99.5107,VALID,0.0169808,VALID,19.4018,VALID,140,VALID,1.10717,
2002-10-30, 02:01:00,VALID,916.523,VALID,0,VALID,99.5132,VALID,0.0169808,VALID,19.4113,VALID,139,VALID,0.907031,
2002-10-30, 02:02:00,VALID,916.525,VALID,0,VALID,99.5145,VALID,0.0339617,VALID,19.4212,VALID,138,VALID,0.952524,
2002-10-30, 02:03:00,VALID,916.524,VALID,0,VALID,99.5196,VALID,0.0339617,VALID,19.411,VALID,139,VALID,0.869727,
2002-10-30, 02:04:00,VALID,916.526,VALID,0,VALID,99.5234,VALID,0,VALID,19.4147,VALID,146,VALID,0.982772,
2002-10-30, 02:05:00,VALID,916.512,VALID,0,VALID,99.5259,VALID,0,VALID,19.4277,VALID,139,VALID,0.667302,
2002-10-30, 02:06:00,VALID,916.493,VALID,0,VALID,99.5209,VALID,0,VALID,19.4145,VALID,138,VALID,0.745634,
2002-10-30, 02:07:00,VALID,916.474,VALID,0,VALID,99.5285,VALID,0,VALID,19.4155,VALID,142,VALID,0.813734,
2002-10-30, 02:08:00,VALID,916.462,VALID,0,VALID,99.5209,VALID,0,VALID,19.3956,VALID,122,VALID,0.575802,
2002-10-30, 02:09:00,VALID,916.443,VALID,0,VALID,99.5183,VALID,0,VALID,19.3762,VALID,136,VALID,0.970228,
2002-10-30, 02:10:00,VALID,916.431,VALID,0,VALID,99.5234,VALID,0.0169808,VALID,19.3665,VALID,143,VALID,1.0122,
2002-10-30, 02:11:00,VALID,916.418,VALID,0,VALID,99.5158,VALID,0,VALID,19.3464,VALID,141,VALID,0.833882,
2002-10-30, 02:12:00,VALID,916.406,VALID,0,VALID,99.5132,VALID,0,VALID,19.3504,VALID,146,VALID,0.758224,
2002-10-30, 02:13:00,VALID,916.394,VALID,0,VALID,99.5209,VALID,0.0169808,VALID,19.337,VALID,148,VALID,1.02886,
2002-10-30, 02:14:00,VALID,916.395,VALID,0,VALID,99.5196,VALID,0,VALID,19.3469,VALID,147,VALID,0.851758,
2002-10-30, 02:15:00,VALID,916.384,VALID,0,VALID,99.5196,VALID,0,VALID,19.3476,VALID,143,VALID,0.972873,
2002-10-30, 02:16:00,VALID,916.374,VALID,0,VALID,99.531,VALID,0,VALID,19.3275,VALID,147,VALID,0.851563,
2002-10-30, 02:17:00,VALID,916.373,VALID,0,VALID,99.531,VALID,-0.0169808,VALID,19.3211,VALID,133,VALID,0.769922,
2002-10-30, 02:18:00,VALID,916.361,VALID,0,VALID,99.5348,VALID,0,VALID,19.3114,VALID,149,VALID,0.738982,
2002-10-30, 02:19:00,VALID,916.343,VALID,0,VALID,99.5234,VALID,0,VALID,19.3049,VALID,110,VALID,0.261619,
2002-10-30, 02:20:00,VALID,916.335,VALID,0,VALID,99.5145,VALID,0,VALID,19.2788,VALID,103,VALID,0.667863,
2002-10-30, 02:21:00,VALID,916.348,VALID,0,VALID,99.5031,VALID,0.0169808,VALID,19.2632,VALID,121,VALID,0.517187,
2002-10-30, 02:22:00,VALID,916.326,VALID,0,VALID,99.517,VALID,0,VALID,19.2433,VALID,120,VALID,0.491992,
2002-10-30, 02:23:00,VALID,916.323,VALID,0,VALID,99.5221,VALID,0.0169808,VALID,19.2498,VALID,107,VALID,0.468133,
2002-10-30, 02:24:00,VALID,916.325,VALID,0,VALID,99.531,VALID,0.0169808,VALID,19.2433,VALID,115,VALID,0.614583,
2002-10-30, 02:25:00,VALID,916.313,VALID,0,VALID,99.5348,VALID,0.0169808,VALID,19.2468,VALID,99,VALID,0.39043,
2002-10-30, 02:26:00,VALID,916.334,VALID,0,VALID,99.5285,VALID,0,VALID,19.2175,VALID,97,VALID,0.467748,
2002-10-30, 02:27:00,VALID,916.336,VALID,0,VALID,99.5209,VALID,0,VALID,19.2083,VALID,107,VALID,0.544141,
2002-10-30, 02:28:00,VALID,916.322,VALID,0,VALID,99.5259,VALID,0,VALID,19.1787,VALID,93,VALID,0.589944,
2002-10-30, 02:29:00,VALID,916.322,VALID,0,VALID,99.5374,VALID,0,VALID,19.1891,VALID,113,VALID,0.667492,
2002-10-30, 02:30:00,VALID,916.326,VALID,0,VALID,99.5348,VALID,0.0169808,VALID,19.1919,VALID,123,VALID,0.869088,
2002-10-30, 02:31:00,VALID,916.322,VALID,0,VALID,99.5412,VALID,0,VALID,19.1953,VALID,125,VALID,0.69371,
2002-10-30, 02:32:00,VALID,916.322,VALID,0,VALID,99.545,VALID,0,VALID,19.1822,VALID,126,VALID,0.708398,
2002-10-30, 02:33:00,VALID,916.335,VALID,0,VALID,99.5399,VALID,0,VALID,19.1857,VALID,123,VALID,0.705602,
2002-10-30, 02:34:00,VALID,916.332,VALID,0,VALID,99.5704,VALID,0,VALID,19.1886,VALID,141,VALID,0.870722,
2002-10-30, 02:35:00,VALID,916.335,VALID,0,VALID,99.5679,VALID,0,VALID,19.2117,VALID,142,VALID,1.26605,
2002-10-30, 02:36:00,VALID,916.334,VALID,0,VALID,99.5628,VALID,0,VALID,19.2214,VALID,133,VALID,1.07127,
2002-10-30, 02:37:00,VALID,916.345,VALID,0,VALID,99.5654,VALID,0,VALID,19.2219,VALID,143,VALID,0.927782,
2002-10-30, 02:38:00,VALID,916.338,VALID,0,VALID,99.5743,VALID,0,VALID,19.2184,VALID,151,VALID,1.11149,
2002-10-30, 02:39:00,VALID,916.344,VALID,0,VALID,99.5692,VALID,-0.0339617,VALID,19.2247,VALID,140,VALID,1.15527,
2002-10-30, 02:40:00,VALID,916.337,VALID,0,VALID,99.5806,VALID,0,VALID,19.2346,VALID,133,VALID,0.860937,
2002-10-30, 02:41:00,VALID,916.322,VALID,0,VALID,99.5844,VALID,0,VALID,19.2177,VALID,141,VALID,1.09888,
2002-10-30, 02:42:00,VALID,916.322,VALID,0,VALID,99.5857,VALID,0,VALID,19.2175,VALID,105,VALID,0.486607,
2002-10-30, 02:43:00,VALID,916.31,VALID,0,VALID,99.5819,VALID,0.0169808,VALID,19.2048,VALID,125,VALID,0.995566,
2002-10-30, 02:44:00,VALID,916.293,VALID,0,VALID,99.5654,VALID,-0.0169808,VALID,19.2053,VALID,122,VALID,1.01583,
2002-10-30, 02:45:00,VALID,916.281,VALID,0,VALID,99.5704,VALID,0,VALID,19.176,VALID,109,VALID,0.987753,
2002-10-30, 02:46:00,VALID,916.253,VALID,0,VALID,99.5781,VALID,0,VALID,19.17,VALID,112,VALID,1.16756,
2002-10-30, 02:47:00,VALID,916.246,VALID,0,VALID,99.559,VALID,0,VALID,19.17,VALID,114,VALID,0.917146,
2002-10-30, 02:48:00,VALID,916.255,VALID,0,VALID,99.5717,VALID,-0.0169808,VALID,19.1566,VALID,109,VALID,1.0209,
2002-10-30, 02:49:00,VALID,916.221,VALID,0,VALID,99.5552,VALID,0,VALID,19.1337,VALID,111,VALID,0.912914,
2002-10-30, 02:50:00,VALID,916.213,VALID,0,VALID,99.5514,VALID,0,VALID,19.1312,VALID,112,VALID,1.04297,
2002-10-30, 02:51:00,VALID,916.199,VALID,0,VALID,99.5539,VALID,0,VALID,19.1049,VALID,124,VALID,0.776042,
2002-10-30, 02:52:00,VALID,916.19,VALID,0,VALID,99.5565,VALID,0,VALID,19.1181,VALID,135,VALID,0.711571,
2002-10-30, 02:53:00,VALID,916.18,VALID,0,VALID,99.5501,VALID,-0.0169808,VALID,19.122,VALID,136,VALID,0.903446,
2002-10-30, 02:54:00,VALID,916.164,VALID,0,VALID,99.5616,VALID,0,VALID,19.1511,VALID,142,VALID,1.19428,
2002-10-30, 02:55:00,VALID,916.165,VALID,0,VALID,99.5603,VALID,0,VALID,19.1598,VALID,132,VALID,1.08013,
2002-10-30, 02:56:00,VALID,916.147,VALID,0,VALID,99.5476,VALID,0,VALID,19.1534,VALID,120,VALID,0.851372,
2002-10-30, 02:57:00,VALID,916.13,VALID,0,VALID,99.5412,VALID,-0.0169808,VALID,19.1767,VALID,110,VALID,0.785056,
2002-10-30, 02:58:00,VALID,916.114,VALID,0,VALID,99.5272,VALID,0,VALID,19.1501,VALID,102,VALID,0.835478,
2002-10-30, 02:59:00,VALID,916.101,VALID,0,VALID,99.5145,VALID,-0.0169808,VALID,19.131,VALID,105,VALID,0.945117,
2002-10-30, 03:00:00,VALID,916.094,VALID,0,VALID,99.512,VALID,-0.0169808,VALID,19.1345,VALID,106,VALID,0.906461,
2002-10-30, 03:01:00,VALID,916.075,VALID,0,VALID,99.5107,VALID,0,VALID,19.1337,VALID,114,VALID,0.804688,
2002-10-30, 03:02:00,VALID,916.06,VALID,0,VALID,99.4967,VALID,0,VALID,19.1181,VALID,105,VALID,0.591747,
2002-10-30, 03:03:00,VALID,916.039,VALID,0,VALID,99.4725,VALID,0,VALID,19.0761,VALID,78,VALID,0.475229,
2002-10-30, 03:04:00,VALID,916.029,VALID,0,VALID,99.4662,VALID,-0.0169808,VALID,19.0574,VALID,81,VALID,0.684122,
2002-10-30, 03:05:00,VALID,916.018,VALID,0,VALID,99.4535,VALID,-0.0339617,VALID,19.0117,VALID,44,VALID,0.428686,
2002-10-30, 03:06:00,VALID,916.014,VALID,0,VALID,99.4255,VALID,-0.0169808,VALID,18.9571,VALID,43,VALID,0.409299,
2002-10-30, 03:07:00,VALID,916.017,VALID,0,VALID,99.4102,VALID,-0.0169808,VALID,18.9317,VALID,43,VALID,0.34375,
2002-10-30, 03:08:00,VALID,916.015,VALID,0,VALID,99.409,VALID,-0.0339617,VALID,18.8962,VALID,43,VALID,0.230168,
2002-10-30, 03:09:00,VALID,916.006,VALID,0,VALID,99.4051,VALID,-0.0339617,VALID,18.8766,VALID,43,VALID,0.200195,
2002-10-30, 03:10:00,VALID,915.994,VALID,0,VALID,99.4102,VALID,-0.0339617,VALID,18.8604,VALID,43,VALID,0.0183594,
2002-10-30, 03:11:00,VALID,915.994,VALID,0,VALID,99.4013,VALID,-0.0679233,VALID,18.841,VALID,43,VALID,0.15957,
2002-10-30, 03:12:00,VALID,915.996,VALID,0,VALID,99.4191,VALID,0,VALID,18.815,VALID,82,VALID,0.342147,
2002-10-30, 03:13:00,VALID,915.988,VALID,0,VALID,99.4179,VALID,0,VALID,18.8184,VALID,85,VALID,0.429306,
2002-10-30, 03:14:00,VALID,915.977,VALID,0,VALID,99.4242,VALID,-0.0169808,VALID,18.8023,VALID,83,VALID,0.486673,
2002-10-30, 03:15:00,VALID,915.966,VALID,0,VALID,99.4433,VALID,-0.0339617,VALID,18.8152,VALID,78,VALID,0.608553,
2002-10-30, 03:16:00,VALID,915.955,VALID,0,VALID,99.4585,VALID,-0.0339617,VALID,18.8152,VALID,78,VALID,0.62859,
2002-10-30, 03:17:00,VALID,915.949,VALID,0,VALID,99.4662,VALID,-0.0169808,VALID,18.8251,VALID,73,VALID,0.52027,
2002-10-30, 03:18:00,VALID,915.964,VALID,0,VALID,99.4446,VALID,-0.0169808,VALID,18.7866,VALID,67,VALID,0.423018,
2002-10-30, 03:19:00,VALID,915.97,VALID,0,VALID,99.4344,VALID,-0.0339617,VALID,18.7536,VALID,67,VALID,0.41139,
2002-10-30, 03:20:00,VALID,915.983,VALID,0,VALID,99.47,VALID,-0.0339617,VALID,18.7732,VALID,68,VALID,0.326275,
2002-10-30, 03:21:00,VALID,915.997,VALID,0,VALID,99.4891,VALID,-0.0169808,VALID,18.8025,VALID,68,VALID,0.381293,
2002-10-30, 03:22:00,VALID,916.011,VALID,0,VALID,99.498,VALID,-0.0339617,VALID,18.806,VALID,68,VALID,0.290625,
2002-10-30, 03:23:00,VALID,916.015,VALID,0,VALID,99.4802,VALID,-0.0169808,VALID,18.7603,VALID,62,VALID,0.491536,
2002-10-30, 03:24:00,VALID,916.037,VALID,0,VALID,99.4598,VALID,-0.0169808,VALID,18.7308,VALID,60,VALID,0.665064,
2002-10-30, 03:25:00,VALID,916.057,VALID,0,VALID,99.4547,VALID,-0.0169808,VALID,18.7243,VALID,48,VALID,0.811133,
2002-10-30, 03:26:00,VALID,916.071,VALID,0,VALID,99.4331,VALID,-0.0339617,VALID,18.6798,VALID,45,VALID,0.832131,
2002-10-30, 03:27:00,VALID,916.083,VALID,0,VALID,99.3975,VALID,-0.0169808,VALID,18.615,VALID,45,VALID,0.852764,
2002-10-30, 03:28:00,VALID,916.086,VALID,0,VALID,99.4293,VALID,-0.0169808,VALID,18.6311,VALID,45,VALID,0.82348,
2002-10-30, 03:29:00,VALID,916.091,VALID,0,VALID,99.4611,VALID,-0.0339617,VALID,18.6632,VALID,45,VALID,0.772656,
2002-10-30, 03:30:00,VALID,916.091,VALID,0,VALID,99.5031,VALID,0,VALID,18.731,VALID,45,VALID,0.739844,
2002-10-30, 03:31:00,VALID,916.102,VALID,0,VALID,99.5361,VALID,-0.0339617,VALID,18.8025,VALID,54,VALID,0.718544,
2002-10-30, 03:32:00,VALID,916.118,VALID,0,VALID,99.559,VALID,-0.0339617,VALID,18.8415,VALID,70,VALID,0.836174,
2002-10-30, 03:33:00,VALID,916.135,VALID,0,VALID,99.5616,VALID,-0.0169808,VALID,18.883,VALID,85,VALID,1.01875,